TimeEDT,TemperatureF,Dew PointF,Humidity,Sea Level PressureIn,VisibilityMPH,Wind Direction,Wind SpeedMPH,Gust SpeedMPH,PrecipitationIn,Events,Conditions,WindDirDegrees,DateUTC
12:54 AM,53.1,46.0,77,29.62,10.0,NE,16.1,21.9,0.00,Rain,Light Rain,40,2012-10-29 04:54:00
1:03 AM,53.6,46.4,77,29.61,10.0,NNE,12.7,21.9,0.00,,Overcast,30,2012-10-29 05:03:00
1:54 AM,53.1,45.0,74,29.58,10.0,NNE,18.4,26.5,0.00,,Overcast,20,2012-10-29 05:54:00
2:54 AM,53.1,45.0,74,29.56,10.0,NNE,12.7,23.0,N/A,,Overcast,20,2012-10-29 06:54:00
3:54 AM,53.1,44.1,71,29.52,10.0,NNE,17.3,24.2,N/A,,Overcast,30,2012-10-29 07:54:00
4:54 AM,53.1,44.1,71,29.48,10.0,NNE,18.4,26.5,N/A,,Overcast,30,2012-10-29 08:54:00
5:54 AM,52.0,46.0,80,29.42,10.0,North,13.8,27.6,0.00,,Overcast,10,2012-10-29 09:54:00
6:54 AM,53.1,46.0,77,29.40,10.0,North,15.0,27.6,N/A,,Overcast,10,2012-10-29 10:54:00
7:54 AM,51.1,48.0,89,29.36,8.0,North,13.8,32.2,0.07,Rain,Rain,360,2012-10-29 11:54:00
8:54 AM,51.1,48.0,89,29.31,4.0,North,17.3,28.8,0.18,Rain,Rain,360,2012-10-29 12:54:00
9:06 AM,51.8,48.2,88,29.30,4.0,North,18.4,28.8,0.04,Rain,Rain,10,2012-10-29 13:06:00
9:17 AM,50.0,48.2,94,29.28,1.8,North,18.4,29.9,0.14,Rain,Heavy Rain,10,2012-10-29 13:17:00
9:25 AM,50.0,48.2,94,29.26,2.0,North,21.9,31.1,0.18,Rain,Heavy Rain,360,2012-10-29 13:25:00
9:35 AM,50.0,48.2,94,29.24,4.0,North,19.6,32.2,0.20,Rain,Rain,360,2012-10-29 13:35:00
9:54 AM,51.1,48.9,92,29.23,3.0,North,18.4,31.1,0.26,Rain,Rain,360,2012-10-29 13:54:00
10:03 AM,51.8,48.2,88,29.21,5.0,North,18.4,29.9,0.01,Rain,Rain,360,2012-10-29 14:03:00
10:35 AM,51.8,50.0,94,29.18,3.0,NNE,18.4,38.0,0.07,Rain,Rain,20,2012-10-29 14:35:00
10:54 AM,51.1,50.0,96,29.16,4.0,North,17.3,34.5,0.10,Rain,Light Rain,10,2012-10-29 14:54:00
10:59 AM,51.8,50.0,94,29.15,4.0,North,19.6,34.5,0.00,Rain,Light Rain,10,2012-10-29 14:59:00
11:54 AM,52.0,51.1,97,29.08,4.0,North,21.9,35.7,0.08,Rain,Light Rain,10,2012-10-29 15:54:00
12:07 PM,51.8,51.8,100,29.06,3.0,NNE,24.2,38.0,0.03,Rain,Rain,20,2012-10-29 16:07:00
12:54 PM,52.0,51.1,97,28.98,4.0,North,19.6,33.4,0.12,Rain,Rain,10,2012-10-29 16:54:00
1:49 PM,53.6,51.8,94,28.88,4.0,NNE,21.9,39.1,0.06,Rain,Light Rain,20,2012-10-29 17:49:00
1:54 PM,54.0,52.0,93,28.87,5.0,NNE,26.5,41.4,0.06,Rain,Light Rain,20,2012-10-29 17:54:00
2:44 PM,53.6,53.6,100,28.78,2.5,North,25.3,48.3,0.14,Rain,Heavy Rain,10,2012-10-29 18:44:00
2:54 PM,55.0,53.1,93,28.76,3.0,North,26.5,48.3,0.17,Rain,Heavy Rain,10,2012-10-29 18:54:00
3:04 PM,55.4,53.6,94,28.74,2.5,North,28.8,42.6,0.05,Rain,Heavy Rain,10,2012-10-29 19:04:00
3:15 PM,55.4,53.6,94,28.73,3.0,North,28.8,46.0,0.10,Rain,Heavy Rain,10,2012-10-29 19:15:00
3:54 PM,55.0,53.1,93,28.66,3.0,North,24.2,50.6,0.23,Rain,Rain,10,2012-10-29 19:54:00
4:54 PM,55.9,54.0,93,28.53,8.0,North,23.0,40.3,0.10,Rain,Light Rain,360,2012-10-29 20:54:00
5:54 PM,57.0,55.0,93,28.45,5.0,North,25.3,42.6,0.03,,Overcast,10,2012-10-29 21:54:00
6:09 PM,57.2,55.4,94,28.43,6.0,North,25.3,40.3,0.01,,Overcast,10,2012-10-29 22:09:00
6:20 PM,57.2,55.4,94,28.42,5.0,North,25.3,38.0,0.02,Rain,Light Rain,10,2012-10-29 22:20:00
6:52 PM,59.0,57.2,94,28.39,5.0,NNE,25.3,38.0,0.04,Rain,Light Rain,30,2012-10-29 22:52:00
6:54 PM,59.0,57.9,96,28.38,5.0,NNE,26.5,38.0,0.04,Rain,Rain,30,2012-10-29 22:54:00
7:04 PM,60.8,57.2,88,28.37,5.0,NNE,31.1,44.9,0.02,Rain,Light Rain,30,2012-10-29 23:04:00
7:27 PM,60.8,57.2,88,28.38,-9999.0,North,-9999.0,-,0.03,,Unknown,0,2012-10-29 23:27:00